Погода Могилёв-Подольский

Погода Могилёв-Подольский : погода сейчас, прогноз погоды и архив. Всё, что Вы хотите узнать о погоде Могилёв-Подольский!

Хотите узнать прогноз погоды Могилёв-Подольский? Тогда Вам сюда: Погода Могилёв-Подольский

Поиск расширенной информации на нашем сайте:

Другие новости

Новости СМИ2

Главная страница сайта

Новости сайта

03.07.2017

Напоминаем, что на нашем специализированном сайте Метеоцентр.Азия вы можете получить высокодетализированные автоматические прогнозы погоды по пунктам России, СНГ и мира в авиационном формате (включающие направление и скорость ветра, видимость, явления погоды, количество и форму облачности, нижнюю и верхнюю границу облачности).


Погода Могилёв-Подольский - сегодня

Время (UTC), дата Ветер
(°,м/с) 
Видим.   Явления Облачность Т
(°С)
Тd
(°С)
f(%) Тe
(°С)
Pmin
(гПа)
dP
(гПа)
Po
(мм)
O2
(г/м3)
Тmin Tmax R s Состояние
почвы
21 22.02.18 090 (В) 10 км    10/10 720 м 
[Sc]
-1.6 -5.3 76 -3  1022.9  0.3  760  309        <0.5  мокрый или
старый снег
50-90% 
00 23.02.18 090 (В) 10 км    10/10 720 м 
[Sc]
-2.3 -5.5 79 -2  1022.9  760  309           
06 23.02.18 тихо ()   10 км    10/8 720 м кучево-дожд., средняя 
[Cb calv|Ac und]
-3.4 -5.5 85 -3  1022.6  759  310  -3.7      мокрый или
старый снег
50-90% 
09 23.02.18 060 (СВ) 10 км  в посл. час ливневой снег  10/4 600 м кучево-дожд., средняя 
[Cb calv|Ac und]
-1.5 -4.5 80 -2  1022.9  0.3  760  308           
12 23.02.18 070 (В) 20000 м  {ливн. осадки}  10/8 750 м кучево-дожд., средняя 
[Cb calv|Ac und]
+0.2 -4.5 71 +1  1022.1  -0.7  759  306           
15 23.02.18 120 (ЮВ) 10 км    10/8 700 м кучево-дожд., средняя 
[Cb calv|Ac und]
-0.5 -3.3 81 1021.1  -1  758  307        <0.5  мокрый или
старый снег
50-90% 
18 23.02.18 090 (В) 2000 м  слаб. снег  10/0 средняя 
[As op]
-1.9 -3.4 89 -1  1020.8  -0.4  758  308    +0.4     
21 23.02.18 100 (В) 2000 м  слаб. снег  10/0 средняя 
[As op]
-2.5 -3.4 94 -2  1020.1  -0.7  758  308           
00 24.02.18 тихо ()   2000 м  слаб. снег  10/10 400 м 
[Frnb|Ns]
-2.8 -3.8 93 -3  1018.6  -1.5  756  308           
03 24.02.18 350 (С) 2000 м  слаб. снег  10/10 360 м 
[Frnb|Ns]
-3.6 -4.7 92 -3  1017.4  -1.2  756  309           
06 24.02.18 290 (З) 10 км  в посл. час снег  10/3 300 м средняя 
[Frnb|As op]
-5.3 -7.1 87 -7  1017.9  0.4  756  311  -5.4       
09 24.02.18 340 (С) 20000 м    10/6 700 м средняя 
[Sc|Ac und]
-3.4 -8.1 70 -6  1017.7  -0.1  756  309           
12 24.02.18 340 (С) 20000 м    8/8 700 м 
[Sc]
-3.1 -9.9 59 -5  1017.1  -0.6  755  309           
15 24.02.18 340 (С) 20000 м    9/9 720 м 
[Sc]
-4.3 -10.7 61 -6  1017.5  0.4  756  310           
18 24.02.18 340 (С) 10 км    10/8 750 м средняя 
[Sc|Ac und]
-5.7 -9.5 74 -5  1018.6  756  312  -2.1         
21 24.02.18 300 (СЗ) 10 км    10/5 600 м средняя 
[Sc|Ac und]
-7.4 -10.8 77 -7  1019.3  0.6  757  315        <0.5   
00 25.02.18 310 (СЗ) 10 км    10/0 средняя 
[Ac und]
-8.6 -11 83 -8  1020.1  0.8  757  316           
03 25.02.18 тихо ()   2000 м  слаб. снег  10/0 средняя 
[As op]
-8.7 -9.8 92 -9  1020.4  0.3  758  316           
06 25.02.18 090 (В) 4000 м  слаб. снег  10/0 средняя 
[As op]
-9.1 -10.6 89 -11  1022.3  1.9  759  317  -9.4    0.9     
09 25.02.18 020 (С) 20000 м  {снег}  8/0 средняя, верхняя 
[Ac trans|Ci fib]
-8.3 -13.5 66 -10  1023.7  1.4  760  317           
12 25.02.18 090 (В) 20000 м  {снег}  6/0 верхняя 
[Ci fib]
-7.3 -14.3 57 -9  1024.6  0.9             
15 25.02.18 090 (В) 20000 м    3/0 верхняя 
[Ci fib]
-7.7 -16.1 51 -9  1025  0.4  761  317        697   
18 25.02.18 090 (В) 10 км    3/0 верхняя 
[Ci fib]
-11.7 -17 65 -12  1026.8  1.6  762  322    -6.3  0.0    затоплена
водой 
21 25.02.18 290 (З) 10 км    ясно 
-14.9 -17.6 80 -15               
00 26.02.18 тихо ()   10 км    ясно 
-17.9 -19.8 85 -18  1028.1  763  331           
Время (UTC), дата Ветер
(°,м/с) 
Видим.   Явления Облачность Т
(°С)
Тd
(°С)
f(%) Тe
(°С)
Pmin
(гПа)
dP
(гПа)
Po
(мм)
O2
(г/м3)
Тmin Tmax R s Состояние
почвы

Для получения пояснительной информации подведите курсор к названию столбца.

ПОГОДА Могилёв-Подольский - архив

Всё, что Вы хотите узнать о погоде Могилёв-Подольский - удобно и подробно!

Выберите нужную дату (начиная с 1 января 2015* года) и нажмите кнопку "Найти".
Будут отображены архивные сводки погоды по пункту Могилёв-Подольский, начиная с указанной даты.


Отображать данные в формате CSV (для использования в таблицах Excel)


Внимание! Наш архив погоды предназначен исключительно для личного некоммерческого использования в познавательных целях. Если Вам необходимы официальные справки о состоянии погоды (для производственных, юридических, коммерческих и т.п. целей), обращайтесь в органы Росгидромета.

*Примечание: данная дата относится к архиву по метеостанциям СССР (Россия, СНГ, Балтия).
Архив по метеостанциям Зарубежной Европы и Азии (кроме Китая) хранится 10 дней, по другим регионам земного шара (Китай, Африка, Америка, Австралия, Океания) - 1 день.

Могилёв-Подольский - район местоположения метеостанции


Название, широта, долгота, высота метеостанции:
Могилёв-Подольский 48.4°ш. 27.8°д. 78 м над ур. моря [Украина]

Дополнительная информация

В oтличие oт бoльшинства пoгoдных сайтoв мы публикуем пoдрoбную метеoинфoрмацию в детальнoм прoфессиoнальнoм фoрмате.

Характеристики температуры и влажнoсти вoздуха измеряются на высoте 2 м в тени вдали oт зданий и деревьев.
Скoрoсть ветра измеряется на высoте 10 м (на урoвне рoста челoвека скoрoсть ветра ниже в 1.5-2 раза). Если метеoстанция нахoдится в гoрoде или в лесу, тo скoрoсть ветра занижена на 2-4 м/с пo сравнению с oткрытым местoм. Скoрoсть ветра над акватoриями крупных рек и oзёр, а также на вершинах хoлмoв на 2-5 м/с выше, чем в oбычных услoвиях.
Атмoсфернoе давление в разных тoчках местнoсти мoжет значительнo oтличаться oт давления на метеoстанции, в зависимoсти oт услoвий рельефа (при пoдъёме на 10 м давление пoнижается примернo на 1 мм рт.ст.).